This is the latest recevied weather packets stored in our database for station/object N4CRH-13. If no packets are shown the sender has not sent any weather packets the latest 1 day(s).
| Time | Temp. | Humidity | Pressure | Rain* | Wind** | Luminosity | Snow |
|---|---|---|---|---|---|---|---|
| 1777983055 | 1.67° C | 99% | 1290.1 hPa | 0 mm | 4.02 m/s, 293° | 1 W/m² | - |
| 1777982746 | 1.67° C | 99% | 1290.2 hPa | 0 mm | 3.58 m/s, 282° | 1 W/m² | - |
| 1777982441 | 2.22° C | 99% | 1290.2 hPa | 0 mm | 4.47 m/s, 269° | 0 W/m² | - |
| 1777982137 | 2.78° C | 99% | 1290.1 hPa | 0 mm | 5.81 m/s, 277° | 0 W/m² | - |
| 1777981834 | 2.78° C | 99% | 1290.3 hPa | 0 mm | 4.47 m/s, 291° | 0 W/m² | - |
| 1777981531 | 2.78° C | 99% | 1290.1 hPa | 0 mm | 3.58 m/s, 290° | 0 W/m² | - |
| 1777981227 | 2.78° C | 99% | 1290.2 hPa | 0 mm | 3.58 m/s, 300° | 0 W/m² | - |
| 1777980924 | 3.33° C | 99% | 1290.1 hPa | 0 mm | 3.58 m/s, 304° | 0 W/m² | - |
| 1777980621 | 3.33° C | 99% | 1290.1 hPa | 0 mm | 4.02 m/s, 294° | 0 W/m² | - |
| 1777980317 | 3.33° C | 98% | 1289.8 hPa | 0 mm | 3.58 m/s, 294° | 0 W/m² | - |
| 1777980015 | 3.33° C | 98% | 1290.1 hPa | 0 mm | 1.79 m/s, 297° | 0 W/m² | - |
| 1777979708 | 3.33° C | 98% | 1290 hPa | 0 mm | 4.47 m/s, 267° | 0 W/m² | - |
| 1777979405 | 3.89° C | 98% | 1289.8 hPa | 0 mm | 5.36 m/s, 287° | 0 W/m² | - |
| 1777979101 | 3.89° C | 97% | 1289.8 hPa | 0 mm | 5.36 m/s, 302° | 0 W/m² | - |
| 1777978798 | 3.89° C | 97% | 1289.8 hPa | 0 mm | 3.13 m/s, 301° | 0 W/m² | - |
| 1777978495 | 5.56° C | 97% | 1289.6 hPa | 0 mm | 4.47 m/s, 295° | 0 W/m² | - |
| 1777978190 | 5.56° C | 97% | 1289.5 hPa | 0 mm | 0.45 m/s, 296° | 0 W/m² | - |
| 1777977888 | 5.56° C | 97% | 1289.4 hPa | 0 mm | 1.34 m/s, 289° | 0 W/m² | - |
| 1777977585 | 5.56° C | 97% | 1289.6 hPa | 0 mm | 0.89 m/s, 270° | 0 W/m² | - |
| 1777977282 | 5.56° C | 96% | 1289.4 hPa | 0 mm | 1.34 m/s, 258° | 0 W/m² | - |
| 1777976979 | 5.56° C | 96% | 1289.2 hPa | 0 mm | 1.34 m/s, 263° | 0 W/m² | - |
| 1777976676 | 5.56° C | 96% | 1289.1 hPa | 0 mm | 0 m/s | 0 W/m² | - |
| 1777976372 | 5.56° C | 96% | 1289.2 hPa | 0 mm | 0.45 m/s, 295° | 0 W/m² | - |
| 1777976066 | 5.56° C | 96% | 1289 hPa | 0 mm | 1.79 m/s, 251° | 0 W/m² | - |
| 1777975762 | 5.56° C | 96% | 1289.1 hPa | 0 mm | 1.79 m/s, 293° | 0 W/m² | - |
* Rain latest hour (hover to see other rain measurements)
** Current wind speed in m/s (hover to see current wind gust speed)